METEOR 2-17 DEB, 31397

Orbit data source: Space-Track

METEOR 2-17 DEB, 31397 is space debris in LEO originally from a launch on Sat, 30 Jan 1988 UTC launched from the Plesetsk Missile And Space Complex (PKMTR). Debris objects in space refer to the collection of defunct objects orbiting the Earth. Examples of debris include non-operational satellites, rocket bodies, and fragments generated from explosions, collisions, or faulty payload assembly.

Loading next visibility...
Identifier
31397, 1988-005S
Orbit
LEO
Country
Flag of CISCIS
Related business
Manufacturer
Unknown
Mission
Spacecraft
Bus & Motor
Unknown
Mass
Unknown
Launch date (UTC)
1988-01-30 (38 years ago)
Launch vehicle
Unknown
Launch site
Plesetsk Missile And Space Complex (PKMTR)
Object type
Payload
Rocket body
Debris
Shape & HBR
Unknown shape, 0.1 m
Radar Cross Section
Small (<0.1 m²)

Expand to show TLE details & history
Last TLE update: 1 week ago

TLE from 1 week ago
0 METEOR 2-17 DEB
1 31397U 88005S   25298.76129693  .00004432  00000-0  28373-2 0  9991
2 31397  82.5301  99.9262 0007031 182.2846 239.4284 14.03155794957353
Epoch: 2025-10-25T18:16Z
TLE epoch observation values (Epoch: 2025-10-25T18:16:16.054Z)
Latitude
60.84917°
Longitude
164.99582°
Altitude
895.869 km
Speed
7.409 km/s
True Right ascension
07h 33m 47s
True Declination
60° 42' 19"
Sunlit
Object was in daylight at epoch
Visualization orbit readout
Latitude
Unknown
Longitude
Unknown
Altitude
Unknown
Speed
Unknown
Apparent Right ascension
Unknown
Apparent Declination
Unknown
Sunlit
N/A
Visualization observer readout
Local Sidereal Time
16:44:23
Azimuth
Unknown
Elevation
Unknown
Doppler factor
Unknown
Orbital elements
Apogee altitude
885.117 km
Perigee altitude
874.911 km
Semi-major axis
7,258.151 km
Eccentricity
0.0007
Inclination
82.5301°
RAAN
99.9262°
Arg. of periapsis
182.2846°
True anomaly
239.35906°
Mean anomaly
239.4284°
Eccentric anomaly
239.39373°
Mean motion
3.50998 °/min
Orbital period
102.56 mins
BSTAR
0.0028373
Loading maneuver chart data...
Computing Atmospheric mass density...
Loading historical data...
Loading historical data...
Loading historical data...
Loading historical data...
Loading historical data...
Loading historical data...
Loading historical data...

Documentation

Showing up to 5 results
|